DUBAISAT-1

Last updated on Sun Jun 21 2026 00:02:51 GMT+0000 (Coordinated Universal Time)

1 35682U 09041B 26171.34499823 .00000558 00000+0 90158-4 0 9991 2 35682 98.0056 304.5680 0011555 64.7840 295.4565 14.75126564905568
UTC large
Height (km)
Speed (km/s)
/
Latitude / Longitude
Inclination (degrees)
Orbital Period (minutes)
Azimuth
Elevation
Range (km)
Doppler Factor

Next 0 passes for location: London (51.5072 / 0.1276)

No passes found over London.
DUBAISAT-1